Overview Statistics Trail Chart Weather Telemetry Raw packets
 

This is the latest recevied weather packets stored in our database for station/object W0WFX-2. If no packets are shown the sender has not sent any weather packets the latest 10 day(s).

<< 58 59 60 61 62 63 64 >>
Time Temp. Humidity Pressure Rain* Wind** Luminosity Snow
1788247167 23.89° C 69% 1014.7 hPa 0 mm - 0 W/m² -
1788246866 23.89° C 69% 1014.9 hPa 0 mm - 0 W/m² -
1788246566 23.89° C 69% 1014.9 hPa 0 mm - 0 W/m² -
1788246261 23.89° C 68% 1014.8 hPa 0 mm - 0 W/m² -
1788245960 23.89° C 67% 1014.8 hPa 0 mm - 0 W/m² -
1788245655 23.89° C 68% 1014.9 hPa 0 mm - 0 W/m² -
1788245350 24.44° C 67% 1014.8 hPa 0 mm - 0 W/m² -
1788245047 24.44° C 66% 1015 hPa 0 mm - 0 W/m² -
1788244744 24.44° C 65% 1015 hPa 0 mm - 0 W/m² -
1788244440 24.44° C 66% 1014.9 hPa 0 mm - 0 W/m² -
1788244136 25° C 63% 1014.9 hPa 0 mm - 0 W/m² -
1788243832 25° C 63% 1015 hPa 0 mm - 0 W/m² -
1788243527 25° C 64% 1015.1 hPa 0 mm - 0 W/m² -
1788243222 25° C 62% 1014.9 hPa 0 mm - 0 W/m² -
1788242918 25.56° C 64% 1015 hPa 0 mm - 0 W/m² -
1788242614 25.56° C 61% 1015 hPa 0 mm - 0 W/m² -
1788242313 25.56° C 58% 1014.9 hPa 0 mm - 0 W/m² -
1788242010 25.56° C 59% 1014.8 hPa 0 mm - 0 W/m² -
1788241706 26.11° C 60% 1015 hPa 0 mm - 0 W/m² -
1788241403 26.11° C 60% 1014.9 hPa 0 mm - 0 W/m² -
1788241098 26.11° C 60% 1014.9 hPa 0 mm - 0 W/m² -
1788240793 26.11° C 55% 1014.9 hPa 0 mm - 0 W/m² -
1788240489 26.11° C 56% 1014.8 hPa 0 mm - 0 W/m² -
1788240184 26.67° C 56% 1014.9 hPa 0 mm - 0 W/m² -
1788239883 26.67° C 56% 1014.6 hPa 0 mm - 0 W/m² -

* Rain latest hour (hover to see other rain measurements)
** Current wind speed in m/s (hover to see current wind gust speed)